Location: Carrer del Canonge
(41.4901°N, 2.2931°E)
Time: 04:35:18
(UTC+00:00)

IRS-1A Rocket - Pass Details

Date: 18 September 2020
Orbit: 851 x 931 km, 99.2° (Epoch: 25 October)

Event Time Altitude Azimuth Distance (km) Brightness Sun altitude
Exits shadow 19:46:51 17° 171° (S) 2,190 6.0 -21.3°
Maximum altitude 19:51:35 77° 256° (WSW) 956 4.5 -22.1°
Drops below altitude 10° 19:57:29 10° 343° (NNW) 2,628 7.3 -23.2°
Sets 19:59:55 0° 345° (NNW) 3,567 8.0 -23.6°
